sat.trackr.live / text

‹ back to catalog

STARLINK-11489 [DTC]

NORAD 62271 · 2024-237E

PAYLOAD ACTIVE UNKNOWN

§ Identity

Operator
Country
US
Launch date
2024-12-08
Launch site
AFETR
Launch vehicle
Mass (kg)
RCS (m²)

Purposes: comms

External: N2YO · Heavens-Above · Gunter

§ Orbital elements

Epoch: 2026-05-25T03:58:14.073024Z

Period
91.67 min
Inclination
42.9989°
Eccentricity
0.0002894
Mean motion
15.70929723 rev/d
Perigee alt
354.3 km
Apogee alt
358.2 km
Semi-major
6,734.4 km
B*
1.7959e-3
RAAN
316.2022°
Arg perigee
287.7115°
Mean anomaly
72.3436°
Rev number
8,507

§ Raw data

STARLINK-11489 [DTC]1 62271U 24237E   26145.16544066  .00237603  00000+0  17959-2 0  99992 62271  42.9989 316.2022 0002894 287.7115  72.3436 15.70929723 85071

JSON: /api/v1/satellites/62271 · /tle

For live sub-satellite position, see the globe view (requires WebGL).

§ Visibility from observer

Set your observer location to see the next 7 days of passes ≥ 10°. The values pass through the URL so the page stays shareable.

No JS? Fill the form by hand. The geolocation button needs JavaScript.